Location: DARK SKY Beskydy - Park tmavé oblohy, www.darkskybeskydy.cz
(49.4926°N, 18.5016°E)
Time: 09:27:52
(UTC+02:00)

Transit 4A - Pass Details

Date: 05 March 2024
Orbit: 871 x 971 km, 66.8° (Epoch: 24 April)

Event Time Altitude Azimuth Distance (km) Brightness Sun altitude
Exits shadow 04:36:04 - 319° (NW) 3,299 10.5 -17.6°
Reaches altitude 10° 04:38:50 10° 336° (NNW) 2,565 10.1 -17.2°
Maximum altitude 04:42:36 17° 16° (NNE) 2,093 10.1 -16.6°
Drops below altitude 10° 04:46:19 10° 56° (NE) 2,534 11.2 -16.0°
Sets 04:49:45 0° 76° (ENE) 3,464 12.8 -15.4°
